Aurora, CO

1:57 PM MST on January 21, 2018 (GMT -0700)
Buckley Air Force Base

Weather History for KBKF - September, 2013

Change the Weather History Date:

Wednesday, September 4, 2013

  Actual Average Record
Temperature  
Mean Temperature 80 °F -  
Max Temperature 91 °F 79 °F 95 °F (1996)
Min Temperature 68 °F 53 °F 46 °F (2006)
Cooling Degree Days 14    
Growing Degree Days 30 (Base 50)    
Moisture  
Dew Point 51 °F    
Average Humidity 42    
Maximum Humidity 56    
Minimum Humidity 23    
Precipitation  
Precipitation 0.01 in - - ()
Sea Level Pressure  
Sea Level Pressure 30.04 in    
Wind  
Wind Speed 8 mph (SSW)    
Max Wind Speed 23 mph    
Max Gust Speed 29 mph    
Visibility 10 miles    
Events Rain , Thunderstorm    
Averages and records for this station are not official NWS values.
T = Trace of Precipitation, MM = Missing Value Source: NWS Daily Summary

Daily Weather History Graph

Daily Weather History Graph

Search for Another Location

Airport or City:

Trip Planner

Search our weather history database for the weather conditions in past years. The results will help you decide how hot, cold, wet, or windy it might be!

Date:

Astronomy

Sep. 04, 2013 Rise Set
Actual Time 6:30 AM MDT 7:24 PM MDT
Civil Twilight 6:02 AM MDT 7:52 PM MDT
Nautical Twilight 5:30 AM MDT 8:24 PM MDT
Astronomical Twilight 4:56 AM MDT 8:58 PM MDT
Moon 5:44 AM MDT (9/4) 6:46 PM MDT (9/4)
Length of Visible Light 13h 49m
Length of Day
12h 54m
Waning Crescent, 1% of the Moon is Illuminated
Sep 4
Waning Crescent
Sep 5
New
Sep 12
First Quarter
Sep 19
Full
Sep 26
Last Quarter

Hourly Weather History & Observations

Time (MDT) Temp. Dew Point Humidity Pressure Visibility Wind Dir Wind Speed Gust Speed Precip Events Conditions
12:55 AM 69.8 °F 51.8 °F 53% 29.96 in 10.0 mi SSW 9.2 mph - N/A   Mostly Cloudy
1:55 AM 69.8 °F 51.8 °F 53% 29.95 in 10.0 mi SW 5.8 mph - N/A   Mostly Cloudy
2:55 AM 68.0 °F 51.8 °F 56% 29.96 in 10.0 mi SW 8.1 mph - N/A   Mostly Cloudy
3:55 AM 69.8 °F 51.8 °F 53% 29.96 in 10.0 mi SW 4.6 mph - N/A   Mostly Cloudy
4:55 AM 69.8 °F 51.8 °F 53% 29.96 in 10.0 mi SSW 6.9 mph - N/A   Mostly Cloudy
5:55 AM 69.8 °F 51.8 °F 53% 29.98 in 10.0 mi South 5.8 mph - N/A   Mostly Cloudy
6:55 AM 69.8 °F 51.8 °F 53% 30.02 in 70.0 mi SSW 3.5 mph - N/A   Mostly Cloudy
7:55 AM 71.6 °F 53.6 °F 53% 30.04 in 70.0 mi SW 4.6 mph - N/A   Mostly Cloudy
8:55 AM 73.4 °F 53.6 °F 50% 30.04 in 70.0 mi SW 5.8 mph - N/A   Mostly Cloudy
9:56 AM 77.0 °F 51.8 °F 41% 30.05 in 70.0 mi West 8.1 mph - N/A   Mostly Cloudy
10:55 AM 77.0 °F 51.8 °F 41% 30.07 in 70.0 mi WSW 4.6 mph - N/A   Mostly Cloudy
11:55 AM 82.4 °F 50.0 °F 32% 30.05 in 70.0 mi NNE 2.3 mph - N/A   Mostly Cloudy
12:55 PM 87.8 °F 50.0 °F 27% 30.03 in 70.0 mi ENE 2.3 mph - N/A   Mostly Cloudy
1:55 PM 91.4 °F 48.2 °F 23% 30.00 in 70.0 mi ENE 6.9 mph - N/A   Mostly Cloudy
2:55 PM 91.4 °F 48.2 °F 23% 29.98 in 70.0 mi South 5.8 mph - N/A   Mostly Cloudy
3:40 PM 91.4 °F 48.2 °F 23% 30.24 in 70.0 mi East 8.1 mph - N/A Thunderstorm Thunderstorm
3:55 PM 91.4 °F 50.0 °F 24% 29.97 in 70.0 mi ESE 8.1 mph - N/A Thunderstorm Thunderstorm
4:55 PM 77.0 °F 53.6 °F 44% 30.02 in 25.0 mi NNE 23.0 mph 28.8 mph N/A Thunderstorm Thunderstorm
5:03 PM 77.0 °F 51.8 °F 41% 30.25 in 7.0 mi NNE 21.9 mph 28.8 mph N/A Rain , Thunderstorm Light Thunderstorms and Rain
5:55 PM 78.8 °F 50.0 °F 36% 30.02 in 10.0 mi North 2.3 mph - N/A Thunderstorm Thunderstorm
6:07 PM 78.8 °F 51.8 °F 39% 30.25 in 10.0 mi South 6.9 mph - N/A Thunderstorm Mostly Cloudy
6:55 PM 78.8 °F 50.0 °F 36% 30.02 in 10.0 mi SSW 13.8 mph - N/A Thunderstorm Mostly Cloudy
7:55 PM 77.0 °F 50.0 °F 39% 30.02 in 10.0 mi South 8.1 mph - N/A   Mostly Cloudy
8:55 PM 73.4 °F 53.6 °F 50% 30.04 in 10.0 mi SSW 12.7 mph - N/A   Mostly Cloudy
9:55 PM 73.4 °F 51.8 °F 47% 30.04 in 10.0 mi SSW 12.7 mph - N/A   Mostly Cloudy
10:55 PM 69.8 °F 51.8 °F 53% 30.04 in 10.0 mi SW 8.1 mph - N/A   Scattered Clouds
11:55 PM 71.6 °F 51.8 °F 50% 30.02 in 10.0 mi SW 11.5 mph - N/A   Scattered Clouds